This is the latest recevied weather packets stored in our database for station/object DO1BDB-12. If no packets are shown the sender has not sent any weather packets the latest 10 day(s).
| Time | Temp. | Humidity | Pressure | Rain* | Wind** | Luminosity | Snow |
|---|---|---|---|---|---|---|---|
| 1788190299 | 17.22° C | 85% | 100.8 hPa | - | - | - | - |
| 1788190228 | 17.22° C | 84% | 100.8 hPa | - | - | - | - |
| 1788190162 | 17.78° C | 85% | 100.8 hPa | - | - | - | - |
| 1788190097 | 17.22° C | 86% | 100.8 hPa | - | - | - | - |
| 1788190031 | 17.22° C | 86% | 100.8 hPa | - | - | - | - |
| 1788189965 | 17.22° C | 86% | 100.8 hPa | - | - | - | - |
| 1788189899 | 17.22° C | 85% | 100.8 hPa | - | - | - | - |
| 1788189833 | 17.22° C | 82% | 100.8 hPa | - | - | - | - |
| 1788189767 | 17.22° C | 83% | 100.8 hPa | - | - | - | - |
| 1788189702 | 17.22° C | 82% | 100.8 hPa | - | - | - | - |
| 1788189636 | 17.22° C | 83% | 100.8 hPa | - | - | - | - |
| 1788189570 | 17.22° C | 83% | 100.8 hPa | - | - | - | - |
| 1788189511 | 16.67° C | 84% | 100.9 hPa | - | - | - | - |
| 1788189438 | 16.67° C | 84% | 100.9 hPa | - | - | - | - |
| 1788189372 | 16.67° C | 84% | 100.9 hPa | - | - | - | - |
| 1788189307 | 16.67° C | 84% | 100.9 hPa | - | - | - | - |
| 1788189241 | 16.11° C | 87% | 100.9 hPa | - | - | - | - |
| 1788189175 | 16.11° C | 89% | 100.9 hPa | - | - | - | - |
| 1788189109 | 16.11° C | 90% | 100.9 hPa | - | - | - | - |
| 1788189043 | 16.11° C | 91% | 100.9 hPa | - | - | - | - |
| 1788188977 | 15.56° C | 91% | 100.9 hPa | - | - | - | - |
| 1788188911 | 15.56° C | 93% | 100.9 hPa | - | - | - | - |
| 1788188846 | 15.56° C | 91% | 100.9 hPa | - | - | - | - |
| 1788188780 | 15.56° C | 91% | 100.9 hPa | - | - | - | - |
| 1788188714 | 17.22° C | 83% | 100.9 hPa | - | - | - | - |
* Rain since midnight (hover to see other rain measurements)
** Current wind speed in m/s (hover to see current wind gust speed)